KI0MQ Weather Reports


Display with metric or nautical units.
time (UTC)temp
F
wind
direction
speed
MPH
gust
MPH
rain 1hr
in
rain 24hr
in
rain mn
in
humidity
%
barometer
mb
20260510023008 63 355 0.0 2.0 0.00 0.00 0.00 43 1013.5
20260510022003 64 7 0.0 3.0 0.00 0.00 0.00 42 1013.3
20260510021508 64 5 1.0 3.0 0.00 0.00 0.00 41 1013.0
20260510021003 64 8 1.0 4.0 0.00 0.00 0.00 41 1012.9
20260510020503 65 10 1.0 7.0 0.00 0.00 0.00 41 1012.8
20260510020009 65 9 1.0 7.0 0.00 0.00 0.00 41 1012.8
20260510015003 66 355 1.0 4.0 0.00 0.00 0.00 41 1012.6
20260510014509 66 22 1.0 5.0 0.00 0.00 0.00 41 1012.4
20260510014003 66 31 1.0 5.0 0.00 0.00 0.00 41 1012.4
20260510013503 66 23 1.0 4.0 0.00 0.00 0.00 42 1012.2
20260510013009 67 16 1.0 6.0 0.00 0.00 0.00 42 1012.1
20260510012003 68 23 1.0 5.0 0.00 0.00 0.00 42 1011.8
20260510011509 68 19 1.0 4.0 0.00 0.00 0.00 43 1011.8
20260510011004 68 17 1.0 4.0 0.00 0.00 0.00 42 1011.6
20260510010503 69 24 1.0 4.0 0.00 0.00 0.00 44 1011.5
20260510010009 69 20 1.0 5.0 0.00 0.00 0.00 45 1011.3
20260510005503 69 12 1.0 5.0 0.00 0.00 0.00 44 1011.3
20260510005004 70 11 1.0 5.0 0.00 0.00 0.00 45 1011.2
20260510004509 70 19 2.0 6.0 0.00 0.00 0.00 44 1011.2
20260510004003 70 20 3.0 7.0 0.00 0.00 0.00 44 1011.1
20260510003503 70 16 3.0 9.0 0.00 0.00 0.00 44 1011.1
20260510003009 69 15 2.0 9.0 0.00 0.00 0.00 45 1011.1
20260510002003 69 15 2.0 5.0 0.00 0.00 0.00 46 1011.0
20260510001508 69 14 1.0 5.0 0.00 0.00 0.00 47 1010.9
20260510001004 69 24 1.0 6.0 0.00 0.00 0.00 48 1010.9
20260510000503 70 24 2.0 6.0 0.00 0.00 0.00 46 1011.0
20260510000008 70 18 1.0 6.0 0.00 0.00 0.00 47 1011.0
20260509235504 70 3 1.0 4.0 0.00 0.00 0.00 47 1011.0
20260509235003 70 341 1.0 3.0 0.00 0.00 0.00 49 1011.0
20260509234509 70 9 1.0 4.0 0.00 0.00 0.00 49 1011.0
20260509234004 70 2 2.0 8.0 0.00 0.00 0.00 48 1011.0
20260509233504 70 357 2.0 8.0 0.00 0.00 0.00 47 1011.0
20260509233008 70 357 2.0 8.0 0.00 0.00 0.00 48 1011.0
20260509232503 70 8 1.0 6.0 0.00 0.00 0.00 48 1011.0
20260509232005 70 10 2.0 6.0 0.00 0.00 0.00 48 1010.9
20260509231003 70 20 2.0 6.0 0.00 0.00 0.00 48 1010.9
20260509230503 70 11 2.0 6.0 0.00 0.00 0.00 48 1010.9
20260509230009 70 356 2.0 6.0 0.00 0.00 0.00 48 1010.9
20260509225503 70 4 2.0 8.0 0.00 0.00 0.00 48 1010.9
20260509223503 71 20 2.0 7.0 0.00 0.00 0.00 49 1010.7
20260509223008 71 7 3.0 11.0 0.00 0.00 0.00 48 1010.7
20260509222503 71 8 3.0 11.0 0.00 0.00 0.00 48 1010.7
20260509222004 71 3 2.0 9.0 0.00 0.00 0.00 47 1010.6
20260509221003 71 12 3.0 11.0 0.00 0.00 0.00 47 1010.6
20260509220008 71 12 4.0 12.0 0.00 0.00 0.00 47 1010.5
20260509215505 71 357 3.0 10.0 0.00 0.00 0.00 47 1010.3
20260509215003 71 9 4.0 10.0 0.00 0.00 0.00 47 1010.4
20260509214510 70 21 4.0 10.0 0.00 0.00 0.00 48 1010.2
20260509214003 70 23 4.0 10.0 0.00 0.00 0.00 47 1010.3
20260509213503 70 16 4.0 11.0 0.00 0.00 0.00 46 1010.3
20260509213010 71 8 3.0 11.0 0.00 0.00 0.00 46 1010.1
20260509212504 71 358 4.0 11.0 0.00 0.00 0.00 45 1010.1
20260509212003 71 355 4.0 12.0 0.00 0.00 0.00 45 1010.1
20260509211004 72 14 4.0 11.0 0.00 0.00 0.00 43 1009.9
20260509210504 72 16 5.0 11.0 0.00 0.00 0.00 44 1009.8
20260509210008 72 8 4.0 10.0 0.00 0.00 0.00 43 1009.8
20260509205504 72 12 4.0 11.0 0.00 0.00 0.00 42 1009.8
20260509205003 72 12 5.0 14.0 0.00 0.00 0.00 42 1009.7
20260509204508 73 8 5.0 18.0 0.00 0.00 0.00 41 1009.7
20260509204003 73 10 5.0 18.0 0.00 0.00 0.00 41 1009.6
20260509203504 74 26 5.0 17.0 0.00 0.00 0.00 42 1009.6
20260509203008 74 28 5.0 17.0 0.00 0.00 0.00 42 1009.3
20260509202505 75 25 4.0 10.0 0.00 0.00 0.00 39 1009.4
20260509202004 77 22 3.0 8.0 0.00 0.00 0.00 39 1009.1
20260509201508 76 16 3.0 10.0 0.00 0.00 0.00 37 1008.9
20260509201003 76 19 4.0 14.0 0.00 0.00 0.00 36 1008.9
20260509200504 76 11 5.0 14.0 0.00 0.00 0.00 35 1008.9
20260509200008 76 355 4.0 11.0 0.00 0.00 0.00 35 1008.8
20260509195503 76 5 4.0 11.0 0.00 0.00 0.00 34 1008.8
20260509195004 77 22 4.0 11.0 0.00 0.00 0.00 33 1008.6
20260509194508 77 24 3.0 9.0 0.00 0.00 0.00 33 1008.6
20260509194003 78 26 3.0 9.0 0.00 0.00 0.00 33 1008.4
20260509193503 78 32 2.0 9.0 0.00 0.00 0.00 32 1008.3
20260509193009 79 11 1.0 7.0 0.00 0.00 0.00 31 1008.3
20260509192504 78 345 2.0 7.0 0.00 0.00 0.00 33 1008.2
20260509192003 77 350 2.0 7.0 0.00 0.00 0.00 30 1008.2
20260509191508 78 10 3.0 10.0 0.00 0.00 0.00 31 1008.3
20260509191003 77 3 3.0 10.0 0.00 0.00 0.00 31 1008.2
20260509190504 77 352 3.0 7.0 0.00 0.00 0.00 30 1008.3
20260509190008 77 358 3.0 9.0 0.00 0.00 0.00 30 1008.4
20260509185503 77 16 3.0 9.0 0.00 0.00 0.00 31 1008.2
20260509185003 76 34 3.0 9.0 0.00 0.00 0.00 31 1008.2
20260509184509 76 25 3.0 12.0 0.00 0.00 0.00 30 1008.2
20260509183503 77 355 3.0 13.0 0.00 0.00 0.00 32 1008.2
20260509183009 76 5 4.0 13.0 0.00 0.00 0.00 29 1008.2
20260509182503 76 353 3.0 10.0 0.00 0.00 0.00 30 1008.4
20260509182004 76 341 3.0 7.0 0.00 0.00 0.00 29 1008.3
20260509181508 76 359 2.0 5.0 0.00 0.00 0.00 30 1008.3
20260509181004 76 22 2.0 5.0 0.00 0.00 0.00 32 1008.2
20260509180504 75 25 2.0 10.0 0.00 0.00 0.00 33 1008.2
20260509180008 75 25 3.0 10.0 0.00 0.00 0.00 32 1008.2
20260509175503 75 28 2.0 8.0 0.00 0.00 0.00 35 1008.1
20260509175004 75 31 2.0 5.0 0.00 0.00 0.00 31 1008.1
20260509174510 75 17 2.0 8.0 0.00 0.00 0.00 33 1008.2
20260509173504 74 341 2.0 6.0 0.00 0.00 0.00 33 1008.1
20260509173008 74 7 3.0 7.0 0.00 0.00 0.00 32 1008.0
20260509172503 73 22 3.0 8.0 0.00 0.00 0.00 32 1008.1
20260509172004 74 11 3.0 8.0 0.00 0.00 0.00 33 1008.2
20260509171509 74 355 2.0 8.0 0.00 0.00 0.00 33 1008.3
20260509171003 73 17 1.0 7.0 0.00 0.00 0.00 33 1008.4
20260509165503 72 10 3.0 8.0 0.00 0.00 0.00 34 1008.4
20260509165003 72 359 2.0 8.0 0.00 0.00 0.00 34 1008.3
20260509164508 72 359 2.0 6.0 0.00 0.00 0.00 35 1008.3
20260509164003 71 359 2.0 9.0 0.00 0.00 0.00 35 1008.3
20260509163503 71 351 3.0 9.0 0.00 0.00 0.00 36 1008.4
20260509163008 71 352 3.0 9.0 0.00 0.00 0.00 36 1008.3
20260509162004 71 340 2.0 8.0 0.00 0.00 0.00 36 1008.1
20260509160009 69 337 2.0 8.0 0.00 0.00 0.00 39 1008.3
20260509155004 68 353 3.0 11.0 0.00 0.00 0.00 41 1008.4
20260509154508 68 347 3.0 11.0 0.00 0.00 0.00 42 1008.6
20260509154003 68 10 3.0 12.0 0.00 0.00 0.00 43 1008.6
20260509153009 68 359 3.0 9.0 0.00 0.00 0.00 43 1008.7
20260509152503 67 357 3.0 10.0 0.00 0.00 0.00 43 1008.8
20260509152003 67 351 3.0 10.0 0.00 0.00 0.00 44 1008.8
20260509151509 67 352 3.0 8.0 0.00 0.00 0.00 45 1008.6
20260509150503 67 353 3.0 6.0 0.00 0.00 0.00 46 1008.5
20260509150008 67 333 3.0 11.0 0.00 0.00 0.00 45 1008.3
20260509145505 67 315 2.0 11.0 0.00 0.00 0.00 45 1008.6
20260509145005 67 189 1.0 4.0 0.00 0.00 0.00 46 1007.6
20260509144004 66 170 1.0 3.0 0.00 0.00 0.00 49 1007.2
20260509143503 65 216 0.0 3.0 0.00 0.00 0.00 48 1007.4
20260509142503 65 190 2.0 4.0 0.00 0.00 0.00 48 1007.5
20260509142004 64 198 1.0 4.0 0.00 0.00 0.00 48 1007.6
20260509141508 64 204 1.0 4.0 0.00 0.00 0.00 48 1007.6
20260509141004 63 196 1.0 3.0 0.00 0.00 0.00 49 1007.6
20260509140503 63 172 0.0 3.0 0.00 0.00 0.00 55 1007.6
20260509135504 61 158 0.0 2.0 0.00 0.00 0.00 60 1007.6
20260509135003 60 136 0.0 2.0 0.00 0.00 0.00 61 1007.7
20260509134508 58 34 0.0 2.0 0.00 0.00 0.00 62 1007.6
20260509134003 58 0 0.0 0.0 0.00 0.00 0.00 66 1007.6
20260509133504 57 0 0.0 0.0 0.00 0.00 0.00 66 1007.4
20260509133008 56 0 0.0 0.0 0.00 0.00 0.00 68 1007.5
20260509132003 55 0 0.0 0.0 0.00 0.00 0.00 69 1007.4
20260509131508 54 0 0.0 0.0 0.00 0.00 0.00 70 1007.5
20260509130503 52 0 0.0 0.0 0.00 0.00 0.00 72 1007.5
20260509130008 51 0 0.0 0.0 0.00 0.00 0.00 74 1007.5
20260509125004 49 0 0.0 0.0 0.00 0.00 0.00 79 1007.5
20260509124508 48 0 0.0 0.0 0.00 0.00 0.00 81 1007.4
20260509124004 48 0 0.0 0.0 0.00 0.00 0.00 82 1007.5
20260509123503 47 0 0.0 0.0 0.00 0.00 0.00 83 1007.5
20260509123008 46 0 0.0 0.0 0.00 0.00 0.00 84 1007.5
20260509122503 46 0 0.0 0.0 0.00 0.00 0.00 85 1007.3
20260509122003 45 0 0.0 0.0 0.00 0.00 0.00 84 1007.3
20260509121508 44 0 0.0 0.0 0.00 0.00 0.00 85 1007.4
20260509121004 44 0 0.0 0.0 0.00 0.00 0.00 85 1007.3
20260509115503 44 0 0.0 0.0 0.00 0.00 0.00 84 1007.3
20260509115003 44 0 0.0 0.0 0.00 0.00 0.00 84 1007.2
20260509114510 44 0 0.0 0.0 0.00 0.00 0.00 84 1007.0
20260509114004 44 0 0.0 0.0 0.00 0.00 0.00 84 1007.0
20260509113503 44 0 0.0 0.0 0.00 0.00 0.00 84 1007.0
20260509113008 44 0 0.0 0.0 0.00 0.00 0.00 82 1006.9
20260509112503 44 0 0.0 0.0 0.00 0.00 0.00 82 1006.9
20260509112004 44 0 0.0 0.0 0.00 0.00 0.00 82 1006.9
20260509111003 44 0 0.0 0.0 0.00 0.00 0.00 82 1006.8
20260509110008 44 0 0.0 0.0 0.00 0.00 0.00 81 1006.8
20260509105504 44 0 0.0 0.0 0.00 0.00 0.00 81 1006.8
20260509105003 44 0 0.0 0.0 0.00 0.00 0.00 81 1006.8
20260509104508 44 0 0.0 0.0 0.00 0.00 0.00 82 1006.8
20260509104003 44 0 0.0 0.0 0.00 0.00 0.00 82 1006.9
20260509103505 44 0 0.0 0.0 0.00 0.00 0.00 81 1007.0
20260509103009 44 0 0.0 0.0 0.00 0.00 0.00 81 1006.9
20260509102504 44 0 0.0 0.0 0.00 0.00 0.00 81 1006.8
20260509102004 44 0 0.0 0.0 0.00 0.00 0.00 80 1006.8
20260509101508 44 0 0.0 0.0 0.00 0.00 0.00 80 1006.8
20260509101003 44 0 0.0 0.0 0.00 0.00 0.00 80 1006.8
20260509100503 44 0 0.0 0.0 0.00 0.00 0.00 80 1006.8
20260509100009 45 0 0.0 0.0 0.00 0.00 0.00 79 1006.9
20260509095503 45 0 0.0 0.0 0.00 0.00 0.00 79 1006.8
20260509095003 45 0 0.0 0.0 0.00 0.00 0.00 78 1006.9
20260509094508 45 0 0.0 0.0 0.00 0.00 0.00 78 1006.8
20260509094003 45 0 0.0 0.0 0.00 0.00 0.00 77 1006.9
20260509093505 45 0 0.0 0.0 0.00 0.00 0.00 77 1006.9
20260509093008 45 0 0.0 0.0 0.00 0.00 0.00 77 1006.9
20260509092503 45 0 0.0 0.0 0.00 0.00 0.00 78 1006.9
20260509092004 45 0 0.0 0.0 0.00 0.00 0.00 78 1006.9
20260509091508 45 0 0.0 0.0 0.00 0.00 0.00 77 1006.8
20260509091003 46 0 0.0 0.0 0.00 0.00 0.00 76 1006.9
20260509090505 46 0 0.0 0.0 0.00 0.00 0.00 75 1006.8
20260509090008 46 0 0.0 0.0 0.00 0.00 0.00 75 1006.8
20260509085503 46 0 0.0 0.0 0.00 0.00 0.00 76 1006.7
20260509085004 47 0 0.0 0.0 0.00 0.00 0.00 73 1006.7
20260509084508 47 0 0.0 0.0 0.00 0.00 0.00 73 1006.7
20260509084003 47 0 0.0 0.0 0.00 0.00 0.00 72 1006.7
20260509083504 48 0 0.0 0.0 0.00 0.00 0.00 72 1006.6
20260509083009 48 0 0.0 0.0 0.00 0.00 0.00 72 1006.6
20260509082503 48 0 0.0 0.0 0.00 0.00 0.00 71 1006.7
20260509081508 49 0 0.0 0.0 0.00 0.00 0.00 69 1006.6
20260509081004 49 0 0.0 0.0 0.00 0.00 0.00 68 1006.7
20260509080503 50 0 0.0 0.0 0.00 0.00 0.00 68 1006.6
20260509080008 50 0 0.0 0.0 0.00 0.00 0.00 67 1006.6
20260509075504 50 0 0.0 0.0 0.00 0.00 0.00 67 1006.7
20260509075004 50 0 0.0 0.0 0.00 0.00 0.00 66 1006.6
20260509074508 51 0 0.0 0.0 0.00 0.00 0.00 66 1006.8
20260509074003 51 0 0.0 0.0 0.00 0.00 0.00 65 1006.8
20260509073504 52 0 0.0 0.0 0.00 0.00 0.00 63 1006.7
20260509073009 52 0 0.0 0.0 0.00 0.00 0.00 63 1006.8
20260509072503 53 0 0.0 0.0 0.00 0.00 0.00 64 1006.7
20260509072003 53 0 0.0 0.0 0.00 0.00 0.00 60 1006.7
20260509071508 54 0 0.0 0.0 0.00 0.00 0.00 61 1006.8
20260509071003 54 0 0.0 0.0 0.00 0.00 0.00 59 1006.7
20260509070503 54 0 0.0 0.0 0.00 0.00 0.00 60 1006.8
20260509070008 54 0 0.0 0.0 0.00 0.00 0.00 60 1006.8
20260509065503 54 0 0.0 0.0 0.00 0.00 0.00 59 1006.9
20260509065004 55 0 0.0 0.0 0.00 0.00 0.00 58 1006.8
20260509064508 55 0 0.0 0.0 0.00 0.00 0.00 57 1006.9
20260509063504 56 0 0.0 0.0 0.00 0.00 0.00 55 1007.0
20260509063008 57 0 0.0 0.0 0.00 0.00 0.00 53 1007.0
20260509062504 58 0 0.0 0.0 0.00 0.00 0.00 53 1007.0
20260509062003 58 0 0.0 0.0 0.00 0.00 0.00 52 1007.0
20260509061508 58 356 0.0 1.0 0.00 0.00 0.00 51 1007.0
20260509061003 59 356 0.0 1.0 0.00 0.00 0.00 51 1006.9
20260509060503 59 356 0.0 1.0 0.00 0.00 0.00 50 1006.9
20260509060009 59 33 0.0 1.0 0.00 0.00 0.00 50 1006.9
20260509055003 60 33 0.0 1.0 0.00 0.00 0.00 49 1007.0
20260509054003 61 332 0.0 3.0 0.00 0.00 0.00 48 1006.9
20260509053009 61 355 0.0 3.0 0.00 0.00 0.00 48 1006.8
20260509052504 60 359 0.0 3.0 0.00 0.00 0.00 49 1006.8
20260509051508 59 356 0.0 3.0 0.00 0.00 0.00 52 1006.8
20260509051003 58 345 0.0 1.0 0.00 0.00 0.00 53 1006.8
20260509050505 58 345 0.0 1.0 0.00 0.00 0.00 54 1006.7
20260509050009 58 345 0.0 1.0 0.00 0.00 0.00 55 1006.5
20260509045504 58 345 0.0 1.0 0.00 0.00 0.00 54 1006.6
20260509044508 57 345 0.0 1.0 0.00 0.00 0.00 55 1006.5
20260509044003 57 345 0.0 1.0 0.00 0.00 0.00 57 1006.5
20260509043504 57 345 0.0 1.0 0.00 0.00 0.00 56 1006.5
20260509043009 57 345 0.0 1.0 0.00 0.00 0.00 58 1006.5
20260509042503 58 345 0.0 1.0 0.00 0.00 0.00 59 1006.4
20260509042003 58 0 0.0 0.0 0.00 0.00 0.00 57 1006.4
20260509041508 59 345 0.0 1.0 0.00 0.00 0.00 55 1006.3
20260509041003 59 345 0.0 1.0 0.00 0.00 0.00 55 1006.5
20260509040504 59 345 0.0 1.0 0.00 0.00 0.00 53 1006.4
20260509040008 59 345 0.0 1.0 0.00 0.00 0.00 54 1006.4
20260509035503 58 345 0.0 1.0 0.00 0.00 0.00 54 1006.4
20260509035005 59 0 0.0 0.0 0.00 0.00 0.00 56 1006.2
20260509034508 60 0 0.0 0.0 0.00 0.00 0.00 55 1006.2
20260509034005 60 0 0.0 0.0 0.00 0.00 0.00 54 1006.2
20260509033503 61 0 0.0 0.0 0.00 0.00 0.00 52 1006.1
20260509033008 61 345 0.0 1.0 0.00 0.00 0.00 49 1006.1
20260509032504 62 345 0.0 1.0 0.00 0.00 0.00 50 1006.1
20260509032004 62 345 0.0 1.0 0.00 0.00 0.00 46 1006.0
20260509031508 61 345 0.0 1.0 0.00 0.00 0.00 49 1006.0
20260509031003 62 0 0.0 0.0 0.00 0.00 0.00 48 1005.9
20260509030503 62 0 0.0 0.0 0.00 0.00 0.00 47 1005.8
20260509030008 62 0 0.0 0.0 0.00 0.00 0.00 47 1005.8
20260509025004 63 0 0.0 0.0 0.00 0.00 0.00 46 1005.5
20260509024003 64 0 0.0 0.0 0.00 0.00 0.00 43 1005.5
20260509023503 64 0 0.0 0.0 0.00 0.00 0.00 44 1005.5